{"data":{"norad_id":57233,"intl_designator":"2023-094R","name":"STARLINK-5866","alt_names":[],"object_type":"PAYLOAD","status":"ACTIVE","operator":null,"country":"US","launch_date":"2023-07-07","launch_site_code":"AFWTR","launch_vehicle":null,"mission":null,"orbit_class":"UNKNOWN","rcs_meters":null,"size_class":null,"mass_kg":null,"dimensions":null,"purposes":["comms"],"wikipedia_slug":null,"has_3d_model":false,"image_url":null,"decayed_at":null,"tle_current":{"epoch":"2026-05-25T04:20:36.830112Z","epoch_age_seconds":55454,"freshness":"FRESH","line1":"1 57233U 23094R   26145.18098183  .00000242  00000+0  18315-4 0  9993","line2":"2 57233  43.0033 318.7551 0001062 267.9724  92.1006 15.27576987158819","mean_motion":15.27576987,"eccentricity":0.0001062,"inclination_deg":43.0033,"raan_deg":318.7551,"arg_perigee_deg":267.9724,"mean_anomaly_deg":92.1006,"bstar":1.8315e-5,"rev_number":15881,"period_min":94.266934645828,"perigee_km":482.32945913887,"apogee_km":483.78677698194,"semimajor_km":6861.1951180604,"source":"CELESTRAK","updated_at":"2026-05-25T13:38:18.254868Z"}}}